Regional Weather Roundup
Issued by NWS Upton, NY

Current Version | Previous Version | Graphics & Text | Print | Product List | Glossary Off
Versions: 1 2 3 4 5 6 7 8 9 10 11 12 13 14 15 16 17 18 19 20 21 22 23 24 25 26 27 28 29 30 31 32 33 34 35 36 37 38 39 40 41 42 43 44 45 46 47 48 49 50

000
ASUS41 KOKX 190505
RWROKX

REGIONAL WEATHER ROUNDUP
NATIONAL WEATHER SERVICE NEW YORK NY
100 AM EDT FRI SEP 19 2014

NOTE: "FAIR" INDICATES FEW OR NO CLOUDS BELOW 12,000 FEET WITH NO
SIGNIFICANT WEATHER AND/OR OBSTRUCTIONS TO VISIBILITY.

NYZ071-072-176-178-NJZ106-104-190600-
NEW YORK CITY METRO AREA


CITY           SKY/WX    TMP DP  RH WIND       PRES   REMARKS
CENTRAL PARK   CLEAR     63  48  58 NE8G18    30.16R
LAGUARDIA APRT CLEAR     63  50  62 NE10      30.13R
KENNEDY INTL   PTCLDY    63  50  62 N10       30.12R
NEWARK/LIBERTY PTCLDY    61  50  67 N12       30.13R
BRNX BOT. GARD   N/A     59  48  67 E2        30.15R
TETERBORO      CLEAR     61  49  64 N5        30.12R
$$

NYZ177-179-078>081-190600-
LONG ISLAND NEW YORK

CITY           SKY/WX    TMP DP  RH WIND       PRES   REMARKS
FARMINGDALE    CLEAR     60  51  72 NE9       30.12R
ISLIP          PTCLDY    58  52  80 N6        30.11R
SHIRLEY        CLEAR     59  52  77 N5        30.12R
WESTHAMPTON    CLEAR     61  53  75 N8        30.12R
MONTAUK POINT    N/A     64  53  67 NE8G17    30.12R
$$

NYZ052-065-067-190600-
HUDSON VALLEY

CITY           SKY/WX    TMP DP  RH WIND       PRES   REMARKS
WHITE PLAINS   PTCLDY    59  49  69 N10       30.13R
NEWBURGH       NOT AVBL
MONTGOMERY     MOCLDY    54  47  77 NE8       30.16R
POUGHKEEPSIE   CLEAR     54  47  77 N9        30.16R
ALBANY         MOCLDY    49  39  68 N8        30.22R
$$

NJZ001-105-106-008-010-013-015-019>022-104-190600-
NEW JERSEY

CITY           SKY/WX    TMP DP  RH WIND       PRES   REMARKS
NEWARK/LIBERTY PTCLDY    61  50  67 N12       30.13R
TETERBORO      CLEAR     61  49  64 N5        30.12R
CALDWELL       CLEAR     54  47  77 CALM      30.14R
MORRISTOWN     FOG       48  46  93 CALM      30.14R VSB 1/2
SOMERVILLE     CLEAR     52  48  86 NW6       30.12R
LINDEN         FAIR      67  52  59 NE9       30.14R
SUSSEX         CLEAR     49  46  90 CALM      30.17R
ANDOVER          N/A     48  47  96 CALM      30.17R
TRENTON        CLOUDY    57  51  80 N6        30.12R
MILLVILLE      CLEAR     53  52  96 CALM      30.10S
ATLANTIC CITY  CLEAR     55  53  93 CALM      30.10S
WRIGHTSTOWN    MOCLDY    56  55  95 N2        30.08R
TOMS RIVER     PTCLDY    55  52  88 CALM      30.10S
BELMAR         MOCLDY    57  52  82 NW6       30.10R
$$

PAZ047>061-062-071-190600-
EASTERN PENNSYLVANIA

CITY           SKY/WX    TMP DP  RH WIND       PRES   REMARKS
PHILADELPHIA   PTCLDY    61  53  75 NW7       30.11S
ALLENTOWN      CLEAR     54  47  77 N6        30.15R
SCRANTON       CLOUDY    56  46  69 NW8       30.19R
$$

CTZ002-004>006-009-010-012-RIZ004-006-007-MAZ004-011-015-190600-
SOUTHERN NEW ENGLAND
 IN CT

CITY           SKY/WX    TMP DP  RH WIND       PRES   REMARKS
BRADLEY INTL   MOCLDY    54  43  66 N13       30.16R
HARTFORD       CLOUDY    56  47  71 N8G21     30.16R
DANBURY        CLOUDY    56  50  80 N3        30.15R
WTRBRY/OXFORD  CLOUDY    55  46  71 NE10      30.16R
BRIDGEPORT     PTCLDY    61  51  70 NE9       30.13R
MERIDEN        CLOUDY    58  47  66 N10       30.15R
NEW HAVEN      PTCLDY    60  49  66 N9        30.13R
CHESTER        FAIR      55  48  76 N8        30.14R
GROTON         PTCLDY    56  51  84 N12       30.12R
WILLIMANTIC    PTCLDY    52  48  86 N7        30.15R

 IN RI

CITY           SKY/WX    TMP DP  RH WIND       PRES   REMARKS
PROVIDENCE     PTCLDY    57  45  64 N13       30.14R
BLOCK ISLAND   CLEAR     63  50  63 NE16G23   30.11R
WESTERLY       PTCLDY    57  50  77 N6        30.12R

 IN MA

CITY           SKY/WX    TMP DP  RH WIND       PRES   REMARKS
BOSTON         MOCLDY    55  40  56 NW10      30.17R
WORCESTER      PTCLDY    48  40  73 N9        30.17R
WESTFIELD      CLEAR     51  40  65 N8        30.18R
PROVINCETOWN   CLOUDY    59  45  58 N17G24    30.14R
NANTUCKET      CLOUDY    63  54  72 N15       30.09R
$$

ANZ330-335-338-340-345-350-353-355-190600-
COASTAL MARINE OBSERVATIONS


STATION/POSITION TIME  SKY/WX   TEMP    WIND        PRES    VSBY  WAVE
                                AIR SEA DIR/SP/G                  HT/PER
                 (UTC)          (F)     (DEG/KT/KT) (MB)    (MI)  (FT/S)
NY HARB ENTRANCE 0500            67 70   30/ 17/ 21 1019.0          2/11
4S FIRE IS       0500               71                N/A           2/11
23SW MTP         0500                                 N/A           2/10
HUDSON CANYON    0500            69 72  310/  4/  6 1018.9          2/10
EXECUTION ROCKS  0500            64 71   40/ 12/ 16   N/A
WESTERN LI SOUND 0500            63      50/  8/ 12   N/A           1/ 2
CENTRAL LI SOUND 0400            63 70   10/ 16/ 19   N/A           1/ 3
EASTERN LI SOUND 0400            61 68   20/ 14/ 17   N/A
ROBBINS REEF     0500            65      10/ 17/ 19 1018.5
$$


>>>>>>>>>>>>>>>>>>>>>>>>>>>> KEY <<<<<<<<<<<<<<<<<<<<<<<<<<<
>                                                          <
>     SKY/WX - SKY CONDITION/PRESENT WEATHER               <
>     TMP    - TEMPERATURE IN FAHRENHEIT                   <
>     DP     - DEWPOINT IN FAHRENHEIT                      <
>     RH     - RELATIVE HUMIDITY IN PERCENT                <
>     WIND   - DIRECTION AND SPEED IN MPH                  <
>     PRES   - MEAN SEA LEVEL PRESSURE IN INCHES OF HG     <
>     WCI    - WIND CHILL INDEX                            <
>     VSB    - VISIBILITY IN MILES                         <
>     HX     - HEAT INDEX                                  <
>     TC     - TEMPERATURE IN CELSIUS                      <
>     VRB    - VARIABLE WIND DIRECTION                     <
>                                                          <
>>>>>>>>>>>>>>>>>>>>>>>>>>>> KEY <<<<<<<<<<<<<<<<<<<<<<<<<<<




USA.gov is the U.S. government's official web portal to all federal, state and local government web resources and services.